Temp
10 10 10 11 11 11 11 12 12 12 13 13 13 13 13 13 13 14 14 14 14 14 15 15 15 15 15 15 15 15 15 17 16 15 15 13 12 12 12 12 12 11 11 11 11
10 10 10 10 10 11 11 11 11 12 12 12 12 13 13 13 13 14 14 14 14 14 14 15 15 15 15 15 15 14 16 16 15 15 15 13 13 12 11 12 12 12 11 11 11
10 10 10 10 10 10 11 11 11 11 12 12 12 12 12 13 13 13 14 14 14 14 14 15 15 15 15 14 14 14 16 15 15 15 14 14 13 12 11 10 12 12 12 11 11
9 10 10 10 10 10 11 11 11 11 11 12 12 12 12 12 12 13 14 14 14 14 14 15 15 15 15 14 14 15 15 15 15 15 14 14 13 12 11 11 11 12 12 12 11
9 9 9 10 10 10 11 11 11 11 11 11 12 12 12 12 13 12 13 13 14 14 14 15 15 15 14 14 15 16 15 15 15 15 14 13 13 13 12 12 12 12 12 12 11
8 8 8 9 9 10 10 10 11 11 11 11 11 12 12 12 12 12 12 13 13 14 14 14 15 14 14 15 15 15 16 15 16 15 14 14 13 12 12 13 13 12 12 12 11
8 8 8 8 8 9 9 10 10 11 11 11 11 12 12 12 12 12 12 13 13 13 13 14 14 14 14 15 15 16 16 15 15 16 14 14 13 13 13 13 13 13 12 12 11
8 8 8 8 8 8 9 9 10 10 11 11 11 11 12 12 12 12 12 12 12 12 12 13 13 13 14 14 16 16 16 17 15 15 15 14 16 13 13 13 13 13 12 12 12
7 7 7 8 8 8 9 9 9 10 10 11 11 11 12 12 12 12 12 12 12 12 11 12 13 13 13 15 16 16 18 18 16 15 15 14 15 13 14 13 13 13 13 12 12
7 7 6 6 7 7 8 8 9 10 10 11 11 11 11 12 12 12 12 11 12 12 11 11 12 12 13 15 17 18 18 18 17 15 15 15 15 14 15 14 14 14 13 13 13
6 6 6 5 6 6 7 8 8 9 9 9 10 11 11 12 12 12 12 11 11 11 11 11 11 13 14 15 17 18 18 18 18 16 15 16 16 14 15 14 13 14 14 13 13
6 6 6 5 5 5 6 6 7 7 9 9 9 11 11 11 11 11 11 11 11 10 10 11 12 14 14 15 16 16 18 18 18 16 16 17 16 16 13 15 14 14 15 14 13
5 5 5 5 5 5 5 6 6 6 7 10 10 10 11 10 11 10 11 11 10 11 11 12 14 13 13 14 15 16 17 18 18 17 16 17 17 17 15 15 13 13 15 14 15
4 5 5 4 4 4 4 5 5 5 6 7 7 9 10 10 10 11 11 10 10 11 12 12 14 13 13 14 15 17 17 18 18 17 18 17 19 18 17 15 16 16 16 15 15
4 4 4 4 4 3 3 4 4 4 8 7 6 6 6 8 9 10 11 9 11 11 12 12 13 12 13 14 15 17 17 17 17 17 18 17 18 20 17 16 18 18 17 17 16
3 3 4 3 3 3 3 3 3 3 8 6 5 5 5 6 7 8 9 9 10 11 12 13 13 13 13 14 15 16 16 16 17 18 19 18 18 20 19 18 18 17 18 17 17
2 2 2 2 2 2 2 2 2 5 6 7 6 5 5 7 7 7 8 8 10 11 11 12 13 12 13 14 14 15 16 17 18 19 20 19 18 19 19 18 18 18 18 18 18
2 2 2 1 1 1 1 0 3 5 5 6 4 5 6 6 7 8 8 9 10 12 13 13 13 12 13 13 15 14 16 18 17 19 20 18 18 18 19 19 18 18 18 19 18
1 1 0 -0 -0 -0 -0 1 3 4 3 3 3 4 6 6 5 7 9 10 11 12 14 13 14 13 13 13 14 14 16 17 19 19 20 19 18 18 18 18 18 18 18 18 19
-0 -0 -1 -1 -1 -1 -2 -0 1 -0 -0 1 2 4 5 6 5 7 9 10 11 11 13 14 14 13 13 13 14 15 15 17 18 19 19 20 20 19 19 19 19 19 18 19 19
-1 -2 -2 -2 -2 -3 -2 -1 -2 -3 -3 -1 1 2 3 4 4 5 8 10 10 11 12 13 14 14 13 13 14 14 15 16 18 18 20 20 20 19 19 19 19 19 19 18 19
-3 -4 -3 -3 -4 -5 -3 -5 -5 -5 -4 -2 -1 -0 1 2 3 4 6 7 8 10 11 12 13 15 13 13 14 14 16 16 17 18 18 20 20 20 19 19 19 19 19 19 20
-4 -4 -3 -3 -4 -5 -5 -6 -6 -5 -5 -3 -2 -1 0 1 2 3 4 5 6 7 10 12 12 14 14 14 13 14 15 16 17 18 18 19 20 19 18 18 18 18 19 19 20
-5 -5 -6 -6 -7 -7 -7 -6 -6 -6 -6 -5 -3 -2 -1 0 1 2 4 4 4 5 7 9 12 14 15 14 14 14 14 15 16 17 18 18 19 19 18 18 18 19 19 19 19
-6 -7 -6 -7 -7 -7 -8 -8 -7 -7 -6 -5 -4 -2 -2 -0 1 2 3 3 4 5 6 7 10 13 14 15 14 14 14 15 15 16 18 19 18 19 18 18 18 18 19 19 18
-7 -7 -7 -6 -6 -8 -7 -8 -7 -7 -7 -5 -4 -4 -3 -1 1 3 2 1 3 4 5 7 9 12 13 14 14 14 14 15 15 15 17 18 18 18 18 18 18 18 18 19 19
-7 -6 -7 -7 -6 -8 -7 -8 -8 -7 -7 -6 -5 -4 -3 -2 -2 -1 -1 2 3 4 3 6 9 11 13 14 14 14 14 14 15 15 16 17 17 17 17 17 17 17 18 18 18
Height
3168 3167 3166 3164 3163 3162 3161 3160 3160 3160 3160 3160 3160 3160 3161 3162 3163 3164 3166 3167 3169 3170 3172 3173 3174 3175 3176 3176 3177 3177 3180 3178 3179 3179 3178 3179 3179 3178 3178 3177 3178 3180 3182 3185 3187
3164 3163 3161 3160 3159 3157 3156 3155 3155 3154 3154 3153 3154 3154 3155 3156 3158 3158 3160 3162 3165 3167 3169 3170 3172 3174 3175 3176 3177 3178 3179 3179 3179 3179 3179 3179 3180 3178 3178 3178 3179 3180 3182 3184 3188
3160 3159 3157 3155 3154 3153 3152 3150 3150 3150 3149 3149 3149 3148 3149 3150 3152 3153 3154 3157 3160 3163 3165 3168 3170 3172 3174 3176 3177 3178 3179 3178 3178 3177 3178 3179 3180 3179 3179 3180 3180 3181 3182 3185 3188
3157 3155 3153 3151 3149 3148 3147 3146 3145 3144 3144 3144 3144 3144 3144 3146 3151 3146 3148 3152 3155 3158 3161 3164 3168 3170 3173 3175 3176 3176 3177 3176 3177 3176 3178 3179 3180 3181 3181 3181 3181 3182 3184 3186 3189
3154 3152 3149 3147 3145 3143 3142 3141 3140 3140 3139 3139 3140 3139 3140 3141 3144 3144 3145 3147 3150 3153 3157 3161 3164 3168 3172 3174 3174 3175 3176 3175 3175 3176 3179 3179 3180 3182 3182 3180 3181 3183 3184 3187 3190
3152 3149 3146 3144 3141 3139 3137 3136 3135 3134 3134 3134 3134 3134 3136 3138 3139 3139 3141 3144 3146 3150 3153 3157 3161 3166 3168 3170 3173 3173 3173 3173 3174 3176 3178 3179 3181 3181 3181 3180 3181 3183 3185 3187 3191
3150 3147 3143 3141 3138 3135 3133 3131 3129 3128 3128 3128 3129 3129 3129 3135 3134 3133 3136 3141 3143 3146 3150 3153 3157 3162 3165 3168 3169 3171 3174 3173 3174 3176 3177 3180 3181 3182 3180 3180 3180 3182 3184 3187 3190
3146 3142 3139 3137 3133 3131 3128 3126 3124 3123 3122 3122 3123 3123 3124 3127 3128 3130 3132 3135 3140 3142 3146 3149 3152 3157 3161 3165 3168 3169 3172 3173 3174 3175 3177 3179 3180 3180 3179 3180 3180 3181 3184 3186 3189
3141 3137 3133 3131 3128 3125 3123 3121 3118 3117 3116 3116 3117 3118 3119 3121 3122 3124 3127 3131 3135 3139 3142 3146 3150 3154 3159 3162 3167 3168 3166 3168 3172 3174 3175 3179 3179 3180 3178 3179 3179 3180 3183 3186 3187
3136 3132 3128 3125 3122 3119 3117 3115 3112 3111 3110 3110 3110 3115 3114 3113 3114 3118 3122 3126 3131 3135 3139 3143 3147 3150 3153 3158 3158 3161 3164 3166 3169 3172 3173 3176 3179 3176 3177 3178 3179 3180 3181 3183 3186
3131 3127 3123 3120 3116 3113 3112 3109 3108 3103 3104 3104 3104 3104 3106 3108 3110 3112 3115 3120 3126 3130 3134 3138 3143 3142 3149 3154 3158 3160 3162 3164 3167 3170 3172 3174 3177 3176 3175 3177 3179 3179 3179 3181 3184
3126 3122 3118 3114 3111 3108 3105 3103 3102 3098 3092 3096 3094 3095 3101 3102 3104 3107 3110 3115 3119 3123 3131 3136 3134 3142 3148 3152 3155 3158 3159 3161 3164 3168 3171 3172 3173 3175 3173 3175 3177 3178 3178 3179 3181
3119 3116 3114 3110 3106 3104 3101 3099 3096 3092 3088 3085 3083 3087 3093 3097 3099 3101 3105 3110 3113 3121 3124 3127 3129 3139 3143 3146 3150 3154 3156 3158 3161 3166 3168 3170 3170 3171 3172 3171 3174 3175 3177 3177 3178
3114 3110 3108 3105 3103 3098 3096 3095 3093 3089 3086 3083 3079 3079 3084 3088 3089 3096 3100 3107 3111 3115 3121 3124 3131 3132 3136 3140 3145 3148 3154 3157 3160 3163 3163 3166 3163 3164 3169 3168 3169 3170 3172 3175 3176
3108 3104 3102 3098 3095 3094 3092 3090 3090 3089 3088 3082 3079 3077 3077 3082 3088 3088 3095 3100 3105 3109 3117 3116 3121 3126 3130 3133 3141 3145 3151 3155 3157 3159 3158 3162 3164 3157 3164 3166 3166 3167 3168 3171 3173
3103 3098 3096 3093 3090 3089 3088 3087 3089 3092 3083 3082 3079 3078 3079 3079 3079 3082 3085 3095 3102 3107 3110 3113 3118 3122 3125 3131 3137 3145 3148 3152 3155 3155 3153 3155 3159 3153 3157 3162 3164 3164 3166 3167 3169
3097 3092 3089 3086 3086 3084 3084 3085 3090 3084 3080 3079 3078 3076 3077 3077 3078 3079 3081 3084 3090 3098 3101 3109 3110 3115 3119 3126 3132 3138 3142 3146 3148 3147 3145 3150 3154 3152 3154 3158 3161 3163 3164 3165 3166
3092 3086 3082 3080 3079 3078 3080 3084 3082 3077 3076 3075 3075 3074 3074 3074 3072 3074 3076 3078 3084 3088 3093 3096 3102 3105 3110 3116 3121 3127 3133 3132 3138 3138 3141 3147 3147 3149 3154 3157 3159 3160 3162 3161 3162
3085 3081 3076 3074 3073 3073 3076 3077 3074 3073 3072 3072 3070 3070 3069 3071 3070 3069 3069 3071 3075 3080 3085 3091 3095 3100 3105 3111 3119 3122 3123 3132 3133 3136 3135 3137 3146 3148 3149 3152 3155 3158 3158 3159 3158
3078 3073 3071 3069 3068 3068 3070 3069 3070 3068 3067 3069 3068 3069 3068 3068 3068 3066 3064 3066 3070 3076 3082 3086 3091 3093 3100 3108 3111 3115 3126 3128 3126 3125 3131 3131 3135 3139 3143 3148 3152 3155 3156 3155 3156
3074 3069 3066 3063 3061 3062 3065 3064 3060 3062 3062 3064 3064 3063 3064 3065 3065 3064 3060 3062 3065 3072 3078 3082 3085 3089 3096 3093 3099 3109 3111 3117 3125 3125 3124 3130 3129 3136 3141 3145 3149 3152 3153 3153 3153
3069 3068 3062 3059 3062 3059 3059 3056 3053 3053 3056 3056 3057 3057 3059 3060 3060 3061 3059 3057 3056 3062 3069 3074 3080 3078 3084 3092 3099 3103 3107 3114 3115 3119 3123 3124 3127 3130 3137 3142 3146 3148 3148 3147 3148
3065 3062 3058 3055 3059 3056 3053 3049 3048 3047 3048 3050 3050 3051 3054 3055 3058 3056 3056 3056 3053 3056 3064 3071 3071 3075 3080 3088 3091 3092 3099 3107 3114 3119 3119 3124 3123 3131 3134 3139 3142 3145 3147 3144 3145
3061 3060 3057 3051 3051 3049 3047 3045 3043 3042 3040 3042 3044 3045 3047 3047 3050 3051 3052 3052 3051 3051 3052 3057 3062 3063 3064 3071 3081 3086 3092 3099 3105 3109 3111 3114 3122 3126 3132 3136 3140 3142 3145 3143 3143
3059 3059 3054 3052 3049 3046 3046 3043 3040 3035 3033 3033 3036 3040 3041 3042 3045 3046 3049 3050 3049 3051 3051 3054 3057 3062 3065 3070 3075 3082 3088 3093 3096 3102 3105 3106 3119 3123 3129 3133 3137 3138 3141 3143 3144
3056 3054 3052 3048 3045 3043 3043 3040 3036 3032 3029 3029 3031 3033 3036 3038 3042 3042 3044 3046 3047 3046 3046 3051 3054 3060 3063 3066 3069 3075 3081 3087 3093 3099 3102 3107 3111 3119 3125 3130 3133 3135 3139 3142 3144
3052 3050 3049 3046 3042 3042 3042 3039 3035 3030 3027 3026 3026 3027 3032 3033 3033 3033 3035 3039 3041 3042 3043 3047 3053 3056 3058 3063 3068 3070 3072 3080 3087 3092 3099 3101 3110 3116 3120 3124 3127 3131 3135 3138 3142
Wind_Speed
18 18 20 21 22 23 24 26 29 31 33 34 34 34 34 32 30 28 24 23 18 16 14 14 11 8 6 6 6 7 2 1 2 1 1 6 4 4 3 1 8 10 17 22 23
18 19 20 20 20 21 22 22 22 23 24 26 28 31 32 31 29 27 25 21 17 16 16 15 12 10 8 7 7 2 2 2 2 2 2 6 3 4 2 2 7 12 20 23 22
18 19 20 21 21 21 22 22 22 21 20 20 21 22 24 26 27 28 25 20 18 18 18 18 16 12 10 8 7 4 2 5 4 1 4 5 5 1 5 7 6 6 13 19 21
16 18 19 20 21 21 22 22 22 22 21 20 19 19 19 19 12 21 22 20 20 19 21 21 19 16 12 11 9 5 6 6 2 2 4 7 6 3 6 5 9 8 9 15 18
17 18 19 20 20 21 22 22 22 22 22 20 19 19 19 20 19 19 14 17 20 21 22 21 22 18 12 10 10 6 5 5 2 4 6 8 7 4 5 3 8 11 11 14 20
18 19 19 19 20 22 22 22 22 22 22 21 20 20 20 19 13 21 25 17 17 20 22 23 22 18 14 13 10 8 7 4 6 6 8 9 7 5 4 3 7 11 11 15 15
20 20 21 21 20 20 21 22 23 22 22 23 22 21 22 13 13 20 26 25 18 19 21 22 23 22 16 13 15 10 2 2 10 8 9 10 6 6 6 4 8 10 13 16 16
24 24 24 22 22 23 24 23 23 22 22 22 23 22 22 16 17 20 21 27 26 19 20 22 25 23 22 16 15 10 8 11 11 11 10 9 6 10 4 4 6 13 14 18 18
26 27 28 28 27 26 25 25 24 23 22 22 21 23 21 19 20 22 23 22 29 28 23 22 26 25 21 20 16 15 17 14 13 15 10 12 4 8 8 5 4 12 16 19 20
29 27 28 28 28 26 26 27 25 25 23 21 22 19 20 14 22 26 26 27 25 30 29 25 24 22 23 23 27 21 18 18 15 17 14 13 9 6 3 6 4 9 19 21 21
30 28 27 27 28 28 27 27 28 31 22 22 20 15 18 20 22 18 29 30 26 30 30 28 26 31 29 27 24 21 20 18 18 14 13 12 10 12 7 7 8 6 13 21 20
29 28 26 26 27 26 27 26 26 29 34 24 24 27 22 22 22 23 28 36 37 32 29 24 32 28 25 26 26 18 22 21 19 14 14 11 12 12 15 11 12 9 6 11 20
30 28 25 25 25 24 24 25 25 25 36 28 14 24 23 30 23 26 27 31 38 33 34 33 29 27 27 27 28 26 24 23 20 16 15 12 15 13 15 13 16 16 11 11 14
30 29 28 27 25 21 21 20 22 20 22 9 6 10 20 29 38 28 29 27 27 37 34 34 28 28 29 29 29 30 26 20 20 17 19 17 16 16 15 12 8 11 12 15 13
30 30 28 26 24 19 18 17 16 13 8 9 4 7 9 20 15 31 30 30 25 33 37 35 31 30 33 32 31 32 24 22 17 23 20 14 16 7 14 13 9 10 9 12 17
30 30 28 24 19 17 15 15 12 4 7 6 3 4 4 8 18 14 35 31 24 27 35 34 26 29 30 31 31 26 23 21 18 20 21 22 20 20 16 13 12 12 4 7 14
31 31 28 21 16 16 13 11 7 11 6 7 8 10 11 8 11 20 29 42 34 31 32 35 33 27 24 28 31 33 29 20 15 15 11 26 19 21 7 11 8 8 6 2 7
30 32 27 20 18 16 12 5 13 10 17 12 17 18 17 15 10 22 22 39 42 34 31 39 40 33 30 35 36 40 37 31 19 15 17 13 15 24 19 17 8 8 9 8 9
31 30 24 20 14 13 10 14 17 11 11 15 19 21 19 12 8 9 32 35 47 40 27 36 36 34 32 32 35 39 45 39 30 27 21 22 24 16 14 11 10 7 2 3 2
33 29 20 17 16 14 10 18 14 10 13 15 17 13 13 9 8 6 20 30 42 43 34 23 34 27 33 32 33 33 40 40 34 23 18 23 21 20 21 18 13 11 6 7 7
33 21 19 20 20 11 10 14 15 16 13 15 20 21 18 16 8 9 9 13 30 41 37 25 26 32 33 39 37 35 42 44 36 32 16 16 21 21 15 16 14 11 8 9 11
25 14 19 19 7 9 9 13 20 20 17 22 23 23 20 17 18 14 11 8 17 29 43 39 20 28 38 33 36 35 38 45 33 32 38 23 22 19 20 17 10 6 6 13 9
20 17 18 18 5 14 16 19 20 23 20 18 21 20 24 24 17 18 15 9 8 16 26 40 33 28 23 36 34 41 41 42 45 37 34 26 24 12 10 14 12 6 2 9 12
18 12 13 12 15 14 16 17 13 15 18 22 21 17 18 21 23 16 11 7 7 9 25 36 34 36 30 35 41 39 41 41 44 43 37 42 37 17 16 14 11 12 6 11 8
15 10 19 14 14 14 13 17 21 19 15 15 14 15 14 17 22 26 24 17 9 9 16 18 34 33 29 29 32 37 37 40 41 45 45 42 36 34 22 13 9 12 14 3 9
14 15 17 20 17 12 12 12 17 17 10 13 9 6 7 11 14 10 17 13 11 7 3 20 28 30 31 22 25 37 36 41 39 38 42 40 35 31 33 23 22 14 11 8 4
13 14 17 20 15 11 8 10 17 15 9 15 5 3 4 7 16 16 15 14 13 9 2 15 28 36 28 32 20 31 33 40 40 39 39 39 33 22 23 26 26 25 24 20 18
Wind_Direction
287 286 286 284 282 280 277 274 272 270 268 267 267 268 268 267 268 269 270 268 262 255 242 244 250 257 261 285 314 346 310 2 83 89 185 179 160 349 258 199 176 179 168 182 171
292 290 287 284 282 281 281 279 276 275 273 271 268 266 265 265 264 263 258 258 254 246 239 241 240 242 251 261 287 352 314 9 290 325 180 178 176 326 130 139 153 163 172 181 182
296 295 291 289 287 284 281 279 278 277 274 273 272 270 266 262 262 260 255 251 245 236 232 228 229 231 235 245 261 276 286 328 336 269 171 174 166 54 137 166 169 140 165 177 182
315 306 300 296 292 287 283 280 279 277 276 273 270 268 267 261 254 256 254 242 235 227 226 224 224 224 222 229 241 280 293 303 342 134 155 162 165 133 136 175 181 167 165 169 181
331 322 313 309 306 300 292 286 281 276 273 271 269 267 263 257 250 245 244 233 225 220 222 222 222 217 218 228 245 277 289 310 264 174 170 162 160 167 166 130 180 182 158 170 176
337 332 328 326 319 312 304 299 290 282 275 269 264 263 262 262 251 237 235 230 224 216 213 218 218 214 215 226 216 241 283 295 178 184 179 143 165 147 202 159 182 182 174 162 177
334 329 325 324 323 324 321 313 299 290 280 272 265 259 257 254 239 231 229 225 224 212 208 212 215 209 213 218 225 234 244 128 158 191 184 168 177 171 203 158 185 190 180 173 180
326 325 320 316 317 319 317 317 311 302 283 277 266 262 258 243 237 234 230 225 218 208 210 205 208 203 209 209 211 215 209 189 184 196 208 194 120 190 168 164 182 191 194 185 182
328 325 318 313 311 313 313 315 315 308 297 275 270 262 262 246 232 228 227 224 218 215 218 213 206 208 211 205 205 211 204 201 181 199 214 191 119 193 206 202 180 195 197 197 192
325 325 322 317 312 314 314 315 316 311 302 283 267 262 245 232 226 222 220 219 213 210 211 210 207 206 206 204 207 201 215 192 188 203 205 208 214 240 181 195 192 200 203 202 203
321 322 322 318 315 314 312 317 322 323 326 292 255 234 234 229 222 209 213 211 203 204 200 204 200 208 208 206 206 216 205 200 192 199 203 217 226 245 252 258 242 225 203 206 209
322 323 320 316 316 315 316 319 319 317 316 308 270 246 228 226 223 216 208 201 202 203 199 203 214 214 208 211 210 215 212 209 194 207 210 226 236 239 242 272 241 253 226 197 203
322 323 323 316 315 315 311 312 314 316 322 324 279 250 229 225 218 212 208 200 206 201 203 209 219 207 210 208 211 215 216 210 209 217 225 238 245 239 238 258 235 234 235 214 205
320 319 322 321 316 313 310 311 315 325 325 318 324 238 225 223 229 213 210 199 204 208 208 217 213 210 211 210 206 213 211 218 214 211 221 219 246 214 225 246 255 246 249 238 231
320 316 321 319 314 307 308 311 315 338 307 321 303 237 237 208 217 225 215 202 208 206 204 216 210 214 211 210 205 211 213 212 216 215 230 211 238 222 201 224 245 237 242 241 235
320 318 321 314 305 297 299 305 314 289 253 296 282 271 341 273 211 218 207 207 206 212 214 216 218 215 216 212 208 200 210 208 216 221 222 228 219 229 207 225 231 226 207 230 219
323 324 323 316 307 295 294 302 281 238 261 263 254 287 301 310 240 215 198 200 198 192 207 211 217 216 211 208 204 200 193 190 208 213 229 218 214 232 186 199 182 215 177 188 220
325 327 322 312 306 298 291 282 244 252 242 264 293 292 282 291 267 216 211 208 205 201 201 199 208 209 208 205 199 198 199 207 197 207 214 205 224 231 232 230 240 220 225 267 237
326 328 319 317 311 300 290 246 247 269 261 264 282 288 272 257 261 233 219 215 208 202 206 203 214 206 209 202 200 203 210 210 220 225 225 202 228 234 223 210 209 214 203 312 252
333 330 324 320 313 308 276 257 259 267 269 268 266 263 255 247 286 249 217 218 212 209 205 209 211 204 200 200 208 210 206 212 224 220 219 230 221 221 212 211 216 208 236 306 299
337 337 330 327 323 324 274 269 264 256 275 256 257 253 253 248 267 286 225 208 209 209 207 209 213 200 198 201 199 199 206 213 213 222 211 229 218 216 190 188 193 204 249 279 270
338 347 329 336 350 320 301 280 285 285 268 256 254 250 245 243 254 261 238 248 205 204 210 207 216 218 210 210 205 209 206 205 216 207 231 236 231 202 202 203 215 217 260 281 230
340 339 339 346 329 311 304 301 287 280 266 252 243 244 246 241 250 246 253 240 210 191 205 208 218 212 192 205 209 208 208 210 213 217 217 227 225 184 180 193 209 202 343 290 215
336 346 336 351 338 328 319 314 296 279 263 237 235 235 241 227 225 238 232 261 237 223 200 199 212 215 203 203 199 204 209 209 210 218 213 220 224 214 222 220 223 234 208 70 179
339 317 345 331 332 319 316 303 296 303 259 217 212 219 224 228 232 237 247 270 264 255 211 207 208 208 213 207 207 207 208 208 213 215 219 223 221 227 220 227 203 196 186 50 52
330 315 328 341 334 322 315 305 309 320 303 207 212 205 214 206 227 243 228 250 253 245 239 210 209 205 212 207 212 206 211 210 213 215 224 228 234 231 232 235 222 209 225 246 288
326 311 320 343 344 320 311 309 311 337 350 254 238 225 191 205 220 225 242 230 238 237 251 199 203 205 212 206 200 210 206 209 216 218 218 222 221 220 219 221 234 240 254 262 264